Retour au catalogue

NOAA 1 DEB *

ActifSSO
NORAD 8828·DEBRIS·🇺🇸 United States

Lancé Dec 11, 1970 depuis Vandenberg Space Force Base

Loading…

Prochains Passages (prochaines 24 heures)

TLE

FraisSource: Space-Track

Époque: Sep 14, 2026, 10:31 UTC

1 08828U 70106C   26257.43853549  .00000060  00000-0  79863-3 0  9995
2 08828 102.2537 236.3382 0031585 327.1779 186.6259 12.39741570522390

Suivez NOAA 1 DEB * en temps réel avec AllMySat

Download on the App Store